Location: C�mpuri de-Sus
(45.9500°N, 22.5500°E)
Time: 13:35:27
(UTC+00:00)

Okean 1-7 Rocket - Pass Details

Date: 24 October 2021
Orbit: 617 x 648 km, 82.5° (Epoch: 06 December)

Event Time Altitude Azimuth Distance (km) Brightness Sun altitude
Rises 16:14:13 0° 354° (N) 2,910 7.0 -8.6°
Reaches altitude 10° 16:16:30 10° 359° (N) 2,002 6.1 -9.0°
Maximum altitude 16:20:52 58° 79° (ENE) 734 3.6 -9.8°
Drops below altitude 10° 16:25:14 10° 158° (SSE) 2,003 6.0 -10.5°
Sets 16:27:30 0° 163° (SSE) 2,911 6.9 -10.9°
